International Virtual Aviation Organisation

Russian Federation and Kazakhstan MCD

 

Карточка аэропорта UIII

Внимание!
Информация на этой странице в стадии наполнения.
Если вы не увидели какой-то информации, или заметили неточность - пожалуйста сообщите нам!
Спасибо!
Команда RU-STAFF
Название аэропортаИркутск
Название аэропорта (англ.)Irkutsk
Превышение1686 ft. (513.9 m.)
Координаты52°16.032', 104°23.7'
Высота перехода1100m
Эшелон переходаFL070
Коды ответчика3330-3347
Зона ОрВДИркутск РПИ (UIII)
Данные METARUIII 302200Z VRB01MPS 8000 OVC003 M05/M05 Q1018 R12/910155 NOSIG RMK QBB090 QFE721/0962
Проноз погоды (TAF)UIII 302200Z 3022/3121 06003MPS 5000 BR OVC002 TEMPO 3022/3103 0300 FZFG VV001 FM310300 30003MPS 3100 -SHSNRA BKN010CB TEMPO 3103/3121 30008G14MPS 0900 +SHSN VV003
NOTAMshow/hide NOTAM
AWOS   TABLE

Информация о ВПП

ВПП Длина ВПП (м.) Покрытие Курс ВПП Частота ILS
123565Железобетон117111.3
303565Железобетон297110.3

Диспетчерские позиции

Позывной Наименование органа УВД Частота
UIII_APPИркутск-Подход125.2
UIII_R_APPИркутск-Круг119.3
UIII_TWRИркутск-Вышка118.1
UIII_GNDИркутск-Руление121.7
UIII_FSSИркутск-Транзит128.5



Спутниковое изображение